• In Russia
  • List of Countries
  • For 7 days
  • Water Temperature
  • Satellite Maps
  • Weather Map
  • Weather Widgets
  • user-avatar
    Login

    Hourly Weather Angir

    Today, 23 July, Monday

    Time Temperature Precipitation Wind Pressure Humidity
    00:00 +15°C° 0 mm 1 mps 700 mmHg 70%
    01:00 +14°C° 0 mm 1 mps 700 mmHg 71%
    02:00 +14°C° 0 mm 1 mps 700 mmHg 72%
    03:00 +13°C° 0 mm 1 mps 700 mmHg 73%
    04:00 +13°C° 0 mm 1 mps 700 mmHg 74%
    05:00 +15°C° 0 mm 1 mps 700 mmHg 69%
    06:00 +18°C° 0 mm 1 mps 700 mmHg 63%
    07:00 +20°C° 0 mm 1 mps 701 mmHg 56%
    08:00 +22°C° 0 mm 1 mps 701 mmHg 52%
    09:00 +24°C° 0 mm 2 mps 700 mmHg 48%
    10:00 +26°C° 0 mm 2 mps 700 mmHg 44%
    11:00 +27°C° 0 mm 2 mps 700 mmHg 42%
    12:00 +28°C° 0 mm 2 mps 700 mmHg 39%
    13:00 +29°C° 0 mm 2 mps 700 mmHg 37%
    14:00 +29°C° 0 mm 2 mps 699 mmHg 37%
    15:00 +29°C° 0 mm 2 mps 699 mmHg 37%
    16:00 +29°C° 0 mm 1 mps 699 mmHg 37%
    17:00 +28°C° 0 mm 1 mps 698 mmHg 44%
    18:00 +26°C° 0 mm 1 mps 698 mmHg 50%
    19:00 +25°C° 0 mm 1 mps 698 mmHg 57%
    20:00 +23°C° 0 mm 1 mps 698 mmHg 60%
    21:00 +21°C° 0 mm 1 mps 698 mmHg 64%
    22:00 +19°C° 0 mm 1 mps 698 mmHg 67%
    23:00 +19°C° 0 mm 1 mps 698 mmHg 69%

    Tomorrow, 24 July, Tuesday

    Time Temperature Precipitation Wind Pressure Humidity
    00:00 +18°C° 0 mm 1 mps 698 mmHg 71%
    01:00 +18°C° 0 mm 1 mps 698 mmHg 72%
    02:00 +18°C° 0 mm 1 mps 698 mmHg 74%
    03:00 +16°C° 0 mm 1 mps 698 mmHg 76%
    04:00 +16°C° 0 mm 1 mps 697 mmHg 77%
    05:00 +19°C° 0 mm 1 mps 698 mmHg 70%
    06:00 +21°C° 0 mm 1 mps 698 mmHg 62%
    07:00 +23°C° 0 mm 1 mps 698 mmHg 55%
    08:00 +25°C° 0 mm 1 mps 698 mmHg 50%
    09:00 +27°C° 0 mm 2 mps 698 mmHg 45%
    10:00 +29°C° 0 mm 2 mps 698 mmHg 40%
    11:00 +30°C° 0 mm 2 mps 698 mmHg 38%
    12:00 +31°C° 0 mm 3 mps 698 mmHg 36%
    13:00 +33°C° 0 mm 3 mps 697 mmHg 34%
    14:00 +33°C° 0 mm 3 mps 697 mmHg 34%
    15:00 +33°C° 0 mm 3 mps 697 mmHg 35%
    16:00 +33°C° 0 mm 3 mps 696 mmHg 35%
    17:00 +31°C° 0 mm 3 mps 696 mmHg 41%
    18:00 +29°C° 0 mm 2 mps 696 mmHg 48%
    19:00 +27°C° 0 mm 2 mps 696 mmHg 54%
    20:00 +26°C° 0 mm 2 mps 696 mmHg 59%
    21:00 +24°C° 0 mm 2 mps 695 mmHg 64%
    22:00 +21°C° 0 mm 2 mps 695 mmHg 69%
    23:00 +21°C° 0 mm 2 mps 695 mmHg 71%

    Day after tomorrow, 25 July, Wednesday

    Time Temperature Precipitation Wind Pressure Humidity
    00:00 +20°C° 0 mm 2 mps 695 mmHg 73%
    01:00 +21°C° 0 mm 1 mps 695 mmHg 76%
    02:00 +21°C° 0 mm 1 mps 695 mmHg 78%
    03:00 +20°C° 0 mm 1 mps 695 mmHg 80%
    04:00 +20°C° 0 mm 1 mps 695 mmHg 81%
    05:00 +21°C° 0 mm 1 mps 695 mmHg 76%
    06:00 +23°C° 0 mm 1 mps 695 mmHg 71%
    07:00 +24°C° 0 mm 1 mps 696 mmHg 66%
    08:00 +25°C° 0 mm 1 mps 696 mmHg 63%
    09:00 +27°C° 0 mm 1 mps 695 mmHg 60%
    10:00 +28°C° 0 mm 1 mps 695 mmHg 56%
    11:00 +29°C° 0 mm 2 mps 695 mmHg 51%
    12:00 +31°C° 0 mm 2 mps 695 mmHg 46%
    13:00 +32°C° 0 mm 2 mps 695 mmHg 41%
    14:00 +34°C° 0 mm 3 mps 695 mmHg 39%
    15:00 +35°C° 0 mm 3 mps 694 mmHg 38%
    16:00 +35°C° 0 mm 3 mps 694 mmHg 36%
    17:00 +33°C° 0 mm 3 mps 693 mmHg 44%
    18:00 +31°C° 0 mm 2 mps 693 mmHg 51%
    19:00 +29°C° 0 mm 1 mps 692 mmHg 59%
    20:00 +28°C° 0.2 mm 1 mps 692 mmHg 62%
    21:00 +26°C° 0.2 mm 2 mps 692 mmHg 65%
    22:00 +25°C° 0.2 mm 2 mps 692 mmHg 69%
    23:00 +24°C° 0.1 mm 2 mps 693 mmHg 72%

    26 July, Thursday

    Time Temperature Precipitation Wind Pressure Humidity
    00:00 +24°C° 0.1 mm 2 mps 693 mmHg 75%
    01:00 +23°C° 0.1 mm 2 mps 693 mmHg 79%
    02:00 +23°C° 0 mm 2 mps 693 mmHg 80%
    03:00 +21°C° 0 mm 2 mps 693 mmHg 80%
    04:00 +21°C° 0 mm 2 mps 694 mmHg 81%
    05:00 +23°C° 0 mm 2 mps 694 mmHg 76%
    06:00 +25°C° 0 mm 2 mps 694 mmHg 71%
    07:00 +26°C° 0 mm 2 mps 694 mmHg 66%
    08:00 +28°C° 0 mm 3 mps 695 mmHg 59%
    09:00 +30°C° 0 mm 3 mps 695 mmHg 52%
    10:00 +33°C° 0 mm 4 mps 695 mmHg 45%
    11:00 +32°C° 0.1 mm 4 mps 695 mmHg 49%
    12:00 +30°C° 0.1 mm 4 mps 694 mmHg 53%
    13:00 +28°C° 0.1 mm 4 mps 694 mmHg 56%
    14:00 +28°C° 0.1 mm 4 mps 694 mmHg 57%
    15:00 +28°C° 0.1 mm 5 mps 695 mmHg 58%
    16:00 +28°C° 0.1 mm 5 mps 695 mmHg 59%
    17:00 +24°C° 0.4 mm 6 mps 696 mmHg 67%
    18:00 +22°C° 0.4 mm 6 mps 696 mmHg 75%
    19:00 +20°C° 0.4 mm 6 mps 697 mmHg 82%
    20:00 +17°C° 0.2 mm 5 mps 697 mmHg 83%
    21:00 +17°C° 0.2 mm 4 mps 698 mmHg 83%
    22:00 +14°C° 0.2 mm 3 mps 699 mmHg 84%
    23:00 +14°C° 0.1 mm 3 mps 699 mmHg 82%

    27 July, Friday

    Time Temperature Precipitation Wind Pressure Humidity
    00:00 +15°C° 0.1 mm 2 mps 699 mmHg 80%
    01:00 +14°C° 0.1 mm 1 mps 700 mmHg 78%
    02:00 +14°C° 0 mm 1 mps 700 mmHg 79%
    03:00 +13°C° 0 mm 1 mps 700 mmHg 80%
    04:00 +12°C° 0 mm 1 mps 700 mmHg 81%
    05:00 +14°C° 0 mm 1 mps 700 mmHg 73%
    06:00 +16°C° 0 mm 1 mps 701 mmHg 64%
    07:00 +19°C° 0 mm 1 mps 701 mmHg 55%
    08:00 +21°C° 0 mm 1 mps 701 mmHg 48%
    09:00 +23°C° 0 mm 1 mps 701 mmHg 41%
    10:00 +25°C° 0 mm 1 mps 701 mmHg 33%
    11:00 +26°C° 0 mm 1 mps 701 mmHg 32%
    12:00 +27°C° 0 mm 2 mps 701 mmHg 31%
    13:00 +28°C° 0 mm 2 mps 701 mmHg 30%
    14:00 +27°C° 0 mm 2 mps 700 mmHg 32%
    15:00 +27°C° 0 mm 2 mps 700 mmHg 33%
    16:00 +27°C° 0 mm 2 mps 700 mmHg 34%
    17:00 +26°C° 0 mm 1 mps 700 mmHg 40%
    18:00 +24°C° 0 mm 1 mps 700 mmHg 46%
    19:00 +23°C° 0 mm 1 mps 700 mmHg 52%
    20:00 +22°C° 0 mm 1 mps 701 mmHg 53%
    21:00 +20°C° 0 mm 1 mps 701 mmHg 54%
    22:00 +18°C° 0 mm 2 mps 701 mmHg 54%
    23:00 +17°C° 0 mm 2 mps 701 mmHg 57%

    28 July, Saturday

    Time Temperature Precipitation Wind Pressure Humidity
    00:00 +16°C° 0 mm 2 mps 701 mmHg 60%
    01:00 +15°C° 0 mm 2 mps 701 mmHg 63%
    02:00 +14°C° 0 mm 2 mps 701 mmHg 66%
    03:00 +14°C° 0 mm 2 mps 701 mmHg 69%
    04:00 +13°C° 0 mm 1 mps 701 mmHg 72%
    05:00 +15°C° 0 mm 1 mps 702 mmHg 65%
    06:00 +18°C° 0 mm 1 mps 702 mmHg 58%
    07:00 +20°C° 0 mm 1 mps 703 mmHg 51%
    08:00 +22°C° 0 mm 1 mps 703 mmHg 46%
    09:00 +24°C° 0 mm 1 mps 703 mmHg 41%
    10:00 +26°C° 0 mm 2 mps 703 mmHg 36%
    11:00 +27°C° 0 mm 1 mps 702 mmHg 34%
    12:00 +28°C° 0 mm 1 mps 702 mmHg 33%
    13:00 +29°C° 0 mm 1 mps 702 mmHg 32%
    14:00 +29°C° 0 mm 1 mps 702 mmHg 32%
    15:00 +29°C° 0 mm 1 mps 701 mmHg 32%
    16:00 +28°C° 0 mm 1 mps 701 mmHg 32%
    17:00 +27°C° 0 mm 1 mps 701 mmHg 38%
    18:00 +25°C° 0 mm 1 mps 701 mmHg 45%
    19:00 +24°C° 0 mm 1 mps 701 mmHg 51%
    20:00 +22°C° 0 mm 1 mps 701 mmHg 54%
    21:00 +20°C° 0 mm 1 mps 701 mmHg 58%
    22:00 +18°C° 0 mm 1 mps 701 mmHg 61%
    23:00 +18°C° 0 mm 1 mps 701 mmHg 62%
    Show more